Flag for Japan Weather past 2 weeks in Sapporo, Japan

Now
62 °F

Cool.


Feels Like: 62 °F
Forecast: 54 / 67 °F
Wind: 10 mph from Southeast

Location: Sapporo

Current Time: Oct 25, 2014 at 3:02:43 PM

Latest Report: Oct 25, 2014 at 2:00 PM


Visibility: N/A

Pressure: 30.04 "Hg

Humidity: 66%

Dew point: 51 °F

Location of SapporoLocation

Historic Weather in Sapporo — Graph

°F

Sapporo temperature yesterday

Maximum temperature yesterday: 62 °F (at 2:00 PM)
Minimum temperature yesterday: 41 °F (at 6:00 AM)
Average temperature yesterday: 50 °F

Past Weeks' High & Low Weather Summary

 TemperatureHumidityPressure
High67 °F (Oct 19, 3:00 PM)94% (Oct 17, 3:00 AM)30.38 "Hg (Oct 17, 3:00 AM)
Low34 °F (Oct 23, 5:00 AM)20% (Oct 19, 3:00 PM)29.65 "Hg (Oct 14, 1:00 PM)
Average51 °F63%30.07 "Hg
* Reported Oct 10 1:00 PM — Oct 25 1:00 PM, Sapporo, Weather by CustomWeather, © 2014

Note: Actual official high and low records may vary slightly from our data, if they occured in-between our weather recording intervals... More about our weather records

Advertising

Sapporo weather history for previous 24 hours

 ConditionsComfort  
Time TempWeatherWind HumidityBarometerVisibility
1:00 PM
Oct 25
63 °FMild.13 mph59%30.04 "HgN/A
12:00 PM65 °FOvercast.8 mph52%30.06 "Hg12 mi
11:00 AM62 °FCool.13 mph64%30.07 "HgN/A
10:00 AM59 °FCool.13 mph67%30.08 "HgN/A
9:00 AM57 °FOvercast.9 mph69%30.09 "Hg12 mi
8:00 AM54 °FCool.7 mph75%30.09 "HgN/A
7:00 AM52 °FCool.7 mph76%30.10 "HgN/A
6:00 AM51 °FOvercast.7 mph75%30.10 "Hg12 mi
5:00 AM49 °FCool.8 mph75%30.10 "HgN/A
4:00 AM47 °FCool.7 mph77%30.11 "HgN/A
3:00 AM48 °FOvercast.7 mph75%30.10 "Hg12 mi
2:00 AM49 °FCool.5 mph72%30.11 "HgN/A
1:00 AM48 °FCool.8 mph74%30.12 "HgN/A
12:00 AM47 °FCool.6 mph78%30.12 "HgN/A
11:00 PM
Oct 24
49 °FCool.3 mph72%30.13 "HgN/A
10:00 PM48 °FCool.5 mph73%30.13 "HgN/A
9:00 PM48 °FClear.3 mph72%30.13 "Hg12 mi
8:00 PM50 °FCool.1 mph64%30.13 "HgN/A
7:00 PM50 °FCool.2 mph64%30.12 "HgN/A
6:00 PM51 °FPassing clouds.2 mph59%30.12 "Hg12 mi
5:00 PM56 °FRefreshingly cool.5 mph50%30.10 "HgN/A
4:00 PM58 °FRefreshingly cool.6 mph46%30.09 "HgN/A
3:00 PM61 °FPassing clouds.6 mph41%30.08 "Hg19 mi
Weather by CustomWeather, © 2014

See weather overviewHow to use our weather pages